[[{"header":{"parameterUnit":"m.s-1","parameterCategory":1,"la1":30.2991,"la2":30.254,"lo1":-89.0895,"lo2":-89.0444,"dy":0.0017,"dx":0.0017,"nx":28,"ny":28,"refTime":"2024-11-25T09:00:00:Z","depth":0,"parameterNumber":2,"parameterNumberName":"U-component_of_WINDS"},"data":[0,0,0,0,0,0,0,0,0,0,0,0,0,0,0,0,0,0,0,0,0,0,0,0,0,0,0,0,0,0,0,0,0,0,0,0,0,0,0,0,0,0,0,0,0,0,0,0,0,0,0,0,0,0,0,0,0,0,-0.5637,-0.5637,0,-0.5695,-0.5695,-0.5696,-0.5766,-0.5767,-0.5768,-0.5769,-0.5828,-0.5828,-0.5829,0,0,0,0,0,0,0,0,0,0,0,0,0,-0.5585,-0.5586,-0.5637,-0.5637,-0.5638,-0.5695,-0.5696,-0.5696,-0.5765,-0.5767,-0.5768,-0.5769,-0.5828,-0.5828,-0.5829,0,0,0,0,0,0,0,0,0,0,0,0,0,-0.5622,-0.5586,-0.5637,-0.5679,-0.5684,-0.5695,-0.5696,-0.5697,-0.5765,-0.5767,-0.5768,-0.577,-0.5827,-0.5828,-0.5829,-0.5802,0,0,-0.5832,-0.5832,0,0,0,0,0,0,0,0,-0.5619,-0.5623,-0.5672,-0.5677,-0.5681,-0.5725,-0.5699,-0.5732,-0.5765,-0.5734,-0.5769,-0.5771,-0.5792,-0.5796,-0.5803,-0.5805,-0.5808,-0.5832,-0.5832,-0.5833,-0.5833,0,0,0,0,0,0,0,-0.5617,-0.5621,-0.566,-0.5673,-0.5679,-0.5696,-0.5703,-0.5706,-0.5753,-0.5737,-0.5742,-0.5748,-0.5795,-0.5802,-0.5805,-0.5808,-0.5832,-0.5833,-0.5833,-0.5833,-0.5789,-0.5788,0,0,0,0,0,0,-0.5608,-0.5619,-0.5658,-0.5661,-0.5654,-0.5695,-0.5703,-0.5709,-0.5754,-0.5762,-0.5747,-0.5751,-0.58,-0.5804,-0.5808,-0.5778,-0.5833,-0.5834,-0.5834,-0.5791,-0.5789,-0.5787,0,0,0,0,0,0,-0.5606,-0.5611,-0.5656,-0.5642,-0.5649,-0.5694,-0.5701,-0.5709,-0.5717,-0.5761,-0.577,-0.5745,-0.5802,-0.5806,-0.5803,-0.5781,-0.5834,-0.5835,-0.5793,-0.5791,-0.5788,-0.5719,0,0,0,0,0,0,-0.5605,-0.561,-0.56,-0.5641,-0.5649,-0.565,-0.5699,-0.5709,-0.5718,-0.5725,-0.5762,-0.577,-0.5803,-0.5801,-0.5804,-0.5783,-0.5835,-0.5795,-0.5792,-0.5789,-0.5723,-0.5714,-0.5706,0,0,0,0,0,-0.5603,-0.5579,-0.5599,-0.5604,-0.5638,-0.5648,-0.5653,-0.5692,-0.5716,-0.5707,-0.5735,-0.5769,-0.5783,-0.58,-0.5804,-0.5783,-0.5797,-0.5793,-0.5789,-0.5727,-0.5716,-0.5707,0,0,0,0,0,0,-0.5534,-0.5585,-0.5608,-0.5597,-0.5618,-0.566,-0.5649,-0.5679,-0.5694,-0.5699,-0.5747,-0.5754,-0.5745,-0.5764,-0.5782,-0.5759,-0.5795,-0.5792,-0.5746,-0.5736,-0.5728,-0.5723,-0.5836,0,0,0,0,0,-0.5518,-0.5522,-0.5566,-0.5552,-0.5561,-0.5603,-0.5609,-0.5637,-0.5661,-0.567,-0.5698,-0.5719,-0.5729,-0.5734,-0.5745,-0.5727,-0.5735,-0.5714,-0.5706,-0.5699,-0.5695,-0.5685,-0.5676,-0.5775,-0.5775,-0.5775,0,0,-0.5484,-0.5512,-0.5512,-0.5539,-0.5558,-0.5561,-0.561,-0.5612,-0.5614,-0.567,-0.5668,-0.5689,-0.5716,-0.5705,-0.5701,-0.572,-0.5669,-0.5694,-0.5688,-0.5688,-0.568,-0.5671,-0.5662,-0.5772,-0.5773,-0.5773,0,0,-0.5424,-0.5446,-0.5436,-0.5454,-0.5483,-0.5511,-0.5508,-0.5546,-0.5562,-0.5561,-0.5603,-0.5606,-0.5622,-0.5639,-0.5649,-0.5594,-0.5626,-0.5597,-0.5553,-0.5543,-0.5535,-0.5528,-0.5507,-0.5499,-0.5593,-0.5593,-0.5593,0,-0.5378,-0.5384,-0.5427,-0.5425,-0.5435,-0.5486,-0.5475,-0.5491,-0.5522,-0.5528,-0.5549,-0.5568,-0.559,-0.5583,-0.5569,-0.5577,-0.5574,-0.5592,-0.5533,-0.5526,-0.5521,-0.5501,-0.5493,-0.5589,-0.559,-0.559,-0.559,0,-0.5326,-0.533,-0.5318,-0.5346,-0.5355,-0.5349,-0.5389,-0.5393,-0.542,-0.5446,-0.5443,-0.5471,-0.5488,-0.5489,-0.5516,-0.5485,-0.5495,-0.5524,-0.5561,-0.5507,-0.5489,-0.5482,-0.5584,-0.5585,-0.5586,-0.5587,0,0,-0.5224,-0.5275,-0.527,-0.5283,-0.5318,-0.5322,-0.5317,-0.5334,-0.5335,-0.5355,-0.5352,-0.5363,-0.539,-0.5402,-0.5431,-0.5422,-0.5375,-0.5452,-0.5453,-0.5435,-0.5341,-0.5318,-0.5309,-0.5396,-0.5395,-0.5394,-0.5338,0,-0.517,-0.5165,-0.5203,-0.5188,-0.5191,-0.5239,-0.5236,-0.5256,-0.528,-0.5286,-0.5312,-0.5319,-0.5354,-0.5361,-0.5355,-0.5382,-0.5356,-0.5387,-0.5393,-0.5392,-0.5383,-0.53,-0.5276,-0.5222,-0.5331,-0.533,-0.533,0,-0.5105,-0.512,-0.5106,-0.514,-0.5143,-0.5139,-0.5156,-0.5162,-0.5186,-0.5204,-0.5216,-0.5249,-0.5247,-0.5283,-0.528,-0.5299,-0.5304,-0.5318,-0.5317,-0.5318,-0.5357,-0.5297,-0.5206,-0.5197,-0.5319,-0.532,-0.5321,0,-0.5031,-0.5048,-0.5041,-0.505,-0.5091,-0.5087,-0.5103,-0.5129,-0.5136,-0.5152,-0.5156,-0.5171,-0.5179,-0.5189,-0.5225,-0.5248,-0.5217,-0.5256,-0.5231,-0.523,-0.5221,-0.5221,-0.5128,-0.5226,-0.5226,-0.5227,-0.5227,0,-0.4965,-0.4954,-0.5008,-0.5003,-0.4992,-0.5035,-0.5022,-0.5044,-0.5066,-0.5066,-0.5109,-0.5108,-0.5156,-0.516,-0.5189,-0.5181,-0.5184,-0.5198,-0.5205,-0.5193,-0.5191,-0.5196,-0.52,-0.5224,-0.5225,-0.5225,-0.5226,0,-0.488,-0.4916,-0.4911,-0.495,-0.4959,-0.4949,-0.4981,-0.4979,-0.5005,-0.5004,-0.5006,-0.5047,-0.5054,-0.5091,-0.5107,-0.5126,-0.5107,-0.5123,-0.5099,-0.5104,-0.5075,-0.5077,-0.4981,-0.497,-0.5076,-0.5075,-0.5074,0,-0.4835,-0.4827,-0.4865,-0.4868,-0.4882,-0.4887,-0.4894,-0.4936,-0.4942,-0.4968,-0.4961,-0.4972,-0.4982,-0.4991,-0.5022,-0.5034,-0.5049,-0.5015,-0.5051,-0.5039,-0.5047,-0.5046,-0.5045,-0.5006,-0.5005,-0.5004,-0.5003,0,-0.4751,-0.4769,-0.4778,-0.4792,-0.4799,-0.4813,-0.4829,-0.4829,-0.4875,-0.4879,-0.4886,-0.4894,-0.491,-0.4919,-0.4936,-0.4953,-0.4985,-0.4991,-0.4986,-0.4973,-0.4958,-0.4964,-0.5076,-0.4993,-0.4994,-0.4995,-0.4995,-0.4996,-0.4684,-0.4679,-0.4704,-0.4712,-0.4728,-0.4742,-0.4741,-0.4766,-0.4773,-0.4789,-0.4813,-0.4817,-0.484,-0.4866,-0.488,-0.4883,-0.4902,-0.4894,-0.4892,-0.4889,-0.4882,-0.4959,-0.4887,-0.4887,-0.4887,-0.4887,-0.4888,0,-0.4602,-0.462,-0.4627,-0.4647,-0.4653,-0.4683,-0.4702,-0.4704,-0.4707,-0.4726,-0.4735,-0.4743,-0.4752,-0.4782,-0.4794,-0.4791,-0.4805,-0.4792,-0.4792,-0.4795,-0.4866,-0.4868,-0.478,-0.478,-0.478,-0.478,-0.478,-0.478,-0.4559,-0.4552,-0.4572,-0.4572,-0.4591,-0.4595,-0.4603,-0.4615,-0.463,-0.4637,-0.4644,-0.4664,-0.4688,-0.4701,-0.471,-0.4719,-0.4721,-0.4702,-0.4716,-0.478,-0.4791,-0.48,-0.4803,-0.4703,-0.4702,-0.4645,-0.4645,-0.4644]},{"header":{"parameterUnit":"m.s-1","parameterCategory":1,"la1":30.2991,"la2":30.254,"lo1":-89.0895,"lo2":-89.0444,"dy":0.0017,"dx":0.0017,"nx":28,"ny":28,"refTime":"2024-11-25T09:00:00:Z","depth":0,"parameterNumber":3,"parameterNumberName":"V-component_of_WINDS"},"data":[0,0,0,0,0,0,0,0,0,0,0,0,0,0,0,0,0,0,0,0,0,0,0,0,0,0,0,0,0,0,0,0,0,0,0,0,0,0,0,0,0,0,0,0,0,0,0,0,0,0,0,0,0,0,0,0,0,0,2.3354,2.3354,0,2.3351,2.3351,2.3351,2.3284,2.3282,2.3281,2.3279,2.3276,2.3277,2.3279,0,0,0,0,0,0,0,0,0,0,0,0,0,2.3301,2.3303,2.3354,2.3354,2.3354,2.3351,2.3351,2.3351,2.3284,2.3282,2.328,2.3278,2.3275,2.3277,2.3279,0,0,0,0,0,0,0,0,0,0,0,0,0,2.3314,2.3303,2.3354,2.332,2.3317,2.3351,2.3351,2.3351,2.3285,2.3282,2.328,2.3277,2.3275,2.3277,2.3279,2.3345,0,0,2.3286,2.3287,0,0,0,0,0,0,0,0,2.3313,2.3316,2.3325,2.3323,2.3319,2.3315,2.3331,2.3349,2.3286,2.3297,2.3279,2.3276,2.3291,2.3292,2.3297,2.3345,2.3344,2.3286,2.3288,2.3289,2.3289,0,0,0,0,0,0,0,2.3312,2.3316,2.3353,2.3326,2.3322,2.3305,2.3304,2.3334,2.3309,2.3296,2.3291,2.3292,2.3289,2.3295,2.3296,2.3344,2.3286,2.3288,2.329,2.329,2.3445,2.3448,0,0,0,0,0,0,2.3316,2.3315,2.3353,2.3353,2.331,2.3308,2.3307,2.3319,2.3308,2.3304,2.3294,2.3289,2.3292,2.3294,2.3296,2.3372,2.3289,2.3291,2.3292,2.3443,2.3446,2.3449,0,0,0,0,0,0,2.3315,2.332,2.3353,2.3333,2.3336,2.3312,2.3326,2.3321,2.3326,2.3307,2.3302,2.3305,2.329,2.3293,2.3333,2.3371,2.3292,2.3294,2.3439,2.3444,2.3448,2.3524,0,0,0,0,0,0,2.3314,2.332,2.3345,2.3334,2.3337,2.3391,2.3328,2.3322,2.3331,2.3324,2.3315,2.3312,2.3288,2.333,2.3335,2.3372,2.3296,2.3436,2.3441,2.3446,2.3518,2.353,2.3541,0,0,0,0,0,2.3313,2.3367,2.3347,2.3352,2.3368,2.3393,2.3395,2.3367,2.3334,2.3359,2.3346,2.3312,2.3366,2.3335,2.334,2.3378,2.3433,2.344,2.3446,2.3513,2.3528,2.3541,0,0,0,0,0,0,2.3383,2.3365,2.3342,2.3395,2.3396,2.3382,2.3412,2.3384,2.3394,2.3387,2.3352,2.3351,2.3397,2.3392,2.3357,2.3441,2.3394,2.3401,2.3443,2.3457,2.3468,2.3468,2.3297,0,0,0,0,0,2.3405,2.3427,2.341,2.3458,2.346,2.3436,2.3446,2.3424,2.3424,2.3424,2.3414,2.3415,2.3432,2.3444,2.3459,2.3517,2.3514,2.3546,2.3558,2.3567,2.3574,2.3604,2.3618,2.3469,2.3469,2.3469,0,0,2.345,2.3443,2.3459,2.3472,2.347,2.3494,2.3437,2.3464,2.3481,2.3428,2.3466,2.3459,2.3457,2.3507,2.3528,2.3504,2.3614,2.3575,2.3583,2.3584,2.3612,2.3626,2.3638,2.3474,2.3473,2.3472,0,0,2.3544,2.3541,2.358,2.358,2.3578,2.3562,2.3572,2.3562,2.3555,2.3592,2.3553,2.3573,2.3603,2.3604,2.3608,2.3702,2.3672,2.3708,2.3767,2.3797,2.3809,2.3819,2.3853,2.3865,2.3715,2.3715,2.3715,0,2.36,2.3635,2.3604,2.3634,2.3641,2.3594,2.3634,2.3635,2.3638,2.3644,2.3617,2.3653,2.3649,2.3698,2.3721,2.3727,2.3736,2.3709,2.381,2.382,2.3829,2.386,2.3873,2.372,2.3719,2.3719,2.3718,0,2.3703,2.3728,2.376,2.3764,2.3775,2.3809,2.3784,2.3798,2.3776,2.3763,2.3801,2.3794,2.3807,2.3817,2.3795,2.3863,2.3848,2.3816,2.3767,2.3848,2.3877,2.3889,2.3726,2.3725,2.3723,2.3722,0,0,2.3842,2.3829,2.3841,2.3843,2.3838,2.3856,2.3888,2.39,2.3913,2.3917,2.3943,2.397,2.394,2.3945,2.3923,2.395,2.4025,2.3914,2.3914,2.3935,2.4098,2.4122,2.4137,2.4004,2.4006,2.4008,2.4098,0,2.3933,2.3988,2.3961,2.4019,2.4041,2.3997,2.4025,2.4025,2.4014,2.403,2.4017,2.4037,2.3996,2.3999,2.4023,2.4011,2.4057,2.4004,2.4028,2.4029,2.403,2.4152,2.4177,2.4263,2.411,2.4111,2.4113,0,2.4046,2.4055,2.4115,2.4105,2.4113,2.4139,2.4148,2.4165,2.4164,2.4154,2.4159,2.4132,2.4163,2.4115,2.4157,2.4121,2.413,2.4125,2.4128,2.4129,2.4076,2.4156,2.4289,2.4302,2.413,2.4129,2.4128,0,2.4141,2.4167,2.4207,2.4209,2.4199,2.4218,2.4215,2.4211,2.422,2.4228,2.4234,2.4245,2.4252,2.4261,2.4237,2.4204,2.4283,2.4233,2.4275,2.4275,2.4293,2.4292,2.4429,2.4299,2.4299,2.4299,2.4298,0,2.4245,2.4283,2.4249,2.4273,2.4315,2.4284,2.4326,2.4318,2.4315,2.4337,2.43,2.4321,2.4288,2.4306,2.4287,2.4325,2.4328,2.4321,2.4315,2.4324,2.4325,2.4329,2.4322,2.4302,2.4301,2.4301,2.43,0,2.4357,2.4336,2.4376,2.4363,2.4361,2.4393,2.4381,2.4403,2.4389,2.4417,2.4422,2.44,2.4419,2.4396,2.4413,2.4401,2.4452,2.4438,2.4453,2.4448,2.4492,2.4488,2.4636,2.4654,2.4512,2.4514,2.4515,0,2.4425,2.4454,2.4444,2.4456,2.4455,2.4475,2.4484,2.4454,2.4465,2.4466,2.4488,2.4504,2.4515,2.4548,2.4533,2.4546,2.4532,2.4583,2.4534,2.4541,2.4533,2.4531,2.4534,2.4593,2.4595,2.4596,2.4597,0,2.4547,2.4535,2.455,2.4561,2.4573,2.458,2.4584,2.4596,2.4565,2.458,2.4599,2.4607,2.4625,2.4641,2.465,2.4647,2.4617,2.4613,2.4623,2.4632,2.464,2.4636,2.448,2.461,2.4608,2.4607,2.4607,2.4606,2.4639,2.4663,2.466,2.4677,2.4677,2.4682,2.4702,2.469,2.4706,2.4718,2.4699,2.4723,2.4721,2.473,2.473,2.4748,2.4726,2.4741,2.4745,2.4749,2.4756,2.4637,2.475,2.4749,2.4749,2.4749,2.4748,0,2.476,2.4755,2.4772,2.4779,2.4792,2.4763,2.4767,2.478,2.4802,2.4802,2.4814,2.4836,2.4852,2.4839,2.4851,2.4869,2.4855,2.4873,2.4871,2.4871,2.4775,2.4765,2.4884,2.4884,2.4884,2.4883,2.4883,2.4883,2.4824,2.4862,2.4849,2.4887,2.4882,2.4905,2.491,2.4914,2.4914,2.494,2.4953,2.4945,2.494,2.4952,2.4965,2.4961,2.4967,2.499,2.4981,2.4891,2.4878,2.4865,2.4855,2.4991,2.4992,2.5075,2.5076,2.5077]}]]